Temp
25 24 25 26 26 25 24 23 23 22 22 22 21 21 21 21 20 17 17 17 18 18 18 18 17 16 16 15 15 15 15 16 15 15 14 14 13 13 13 14 14 13 13
26 25 25 25 26 26 25 24 23 22 21 21 21 20 19 18 18 18 17 18 17 17 17 16 15 16 14 14 14 14 13 14 14 14 14 14 13 13 13 12 12 13 13
27 26 25 25 25 25 26 24 22 22 21 21 20 20 20 18 17 17 16 16 15 16 15 15 15 15 14 14 14 13 14 13 13 14 14 14 13 13 13 12 12 12 12
27 26 26 25 25 25 24 23 22 22 21 19 18 18 18 17 17 16 16 15 15 15 14 15 14 14 14 13 13 12 12 13 13 13 13 13 13 12 12 11 11 12 12
27 26 26 25 24 24 23 22 21 20 20 19 19 18 17 17 16 16 15 15 15 15 14 14 13 14 14 13 13 13 13 12 12 12 12 12 12 11 11 11 11 11 12
26 26 25 24 23 23 22 21 20 20 19 18 19 19 18 18 16 16 16 15 14 14 15 14 14 13 13 13 12 12 11 12 11 11 11 11 11 11 10 10 10 10 11
26 25 24 23 22 22 21 21 21 21 20 19 17 19 18 19 16 16 15 16 16 14 13 14 14 12 13 12 12 12 11 11 11 11 12 11 11 10 11 10 11 11 11
25 24 23 23 22 21 21 21 21 22 23 23 19 17 16 16 15 16 15 16 16 14 13 14 14 13 14 13 13 12 11 11 12 12 12 11 11 11 11 11 11 11 11
23 23 22 22 21 21 21 21 22 20 20 20 19 16 16 15 15 16 16 15 15 14 13 13 13 13 14 14 13 11 11 11 12 12 11 11 12 12 12 11 11 10 11
22 22 22 21 21 21 22 22 22 20 21 18 17 17 15 16 16 15 16 15 14 14 13 13 13 14 14 13 13 12 12 12 12 12 12 12 13 13 13 12 12 11 10
22 21 21 20 20 19 20 20 19 20 18 16 16 15 15 15 16 16 15 14 14 13 13 13 13 14 13 13 13 13 13 12 12 12 12 12 12 13 12 12 11 11 10
22 21 20 19 19 18 18 18 19 19 18 17 16 15 15 15 16 15 14 13 13 14 14 14 14 14 13 13 13 13 13 12 12 12 12 12 12 11 11 10 10 10 9
21 19 19 18 17 18 17 17 16 16 16 15 15 15 15 15 15 14 13 13 13 14 14 14 13 13 13 13 13 13 13 13 12 12 12 12 11 11 11 10 10 9 9
19 18 17 17 17 18 18 16 15 15 15 14 14 14 15 15 15 14 14 14 14 14 14 13 13 13 13 14 14 14 13 13 13 13 12 11 11 10 9 9 9 9 8
18 17 17 17 17 16 15 15 15 15 14 14 15 15 15 15 15 15 15 14 14 13 13 13 13 13 14 14 14 14 14 13 13 13 12 11 10 9 9 8 9 8 7
18 18 18 17 17 15 15 15 14 14 14 15 14 15 15 15 15 15 14 13 13 13 13 13 13 14 14 14 14 14 14 13 13 12 12 11 9 9 9 9 8 7 7
18 18 18 17 16 15 15 15 14 14 15 15 14 15 15 15 14 14 14 13 13 13 14 14 14 14 14 14 14 14 13 13 12 11 10 10 9 9 8 8 8 8 7
17 18 18 17 15 15 15 15 15 15 15 14 14 15 15 15 14 14 13 13 14 14 14 14 14 14 14 14 13 13 12 11 11 10 9 9 9 8 8 8 8 8 7
17 17 17 16 15 15 15 15 15 14 14 14 14 14 14 14 14 14 14 14 14 14 15 15 14 14 14 13 12 12 11 10 10 9 9 8 8 8 8 8 8 8 7
17 17 17 16 15 15 15 15 15 15 14 14 14 14 14 14 14 14 14 14 14 14 15 15 14 14 13 12 11 11 10 10 9 9 9 8 7 8 8 8 7 7 6
16 16 15 16 16 15 16 16 15 15 15 15 13 14 15 15 14 14 14 15 14 14 14 14 14 13 12 12 11 10 10 9 8 8 8 6 7 7 7 7 7 6 6
15 15 15 15 15 15 15 16 16 16 16 16 15 14 14 15 15 15 15 15 15 15 14 13 13 12 11 11 10 9 9 8 7 6 6 7 7 7 7 7 6 6 7
14 15 15 15 15 15 15 16 16 16 17 16 16 15 14 15 15 16 16 16 15 14 13 12 12 11 10 9 9 9 9 8 8 7 7 6 7 7 7 7 6 6 7
14 15 15 15 15 15 15 15 15 16 17 16 15 14 14 15 16 16 16 15 14 13 12 12 11 10 9 9 9 9 9 9 8 8 8 7 6 6 6 6 6 7 7
14 15 15 15 16 15 15 15 15 16 16 15 15 15 15 15 16 16 15 14 13 13 12 11 11 10 10 10 9 9 9 9 9 9 9 9 8 8 7 7 7 7 7
14 14 15 14 14 15 15 14 15 16 16 15 16 16 16 16 16 15 14 14 13 12 12 11 10 9 8 9 9 9 9 9 9 9 9 9 9 8 7 7 7 7 7
Height
1511 1515 1518 1521 1523 1526 1528 1531 1534 1537 1536 1538 1540 1540 1541 1543 1546 1547 1547 1547 1546 1548 1549 1548 1548 1549 1549 1548 1548 1548 1548 1549 1549 1550 1549 1549 1547 1547 1546 1545 1544 1543 1542
1506 1510 1513 1515 1518 1520 1524 1528 1531 1534 1533 1535 1538 1540 1543 1545 1546 1545 1545 1545 1546 1547 1545 1546 1548 1548 1548 1548 1549 1549 1549 1549 1549 1550 1550 1549 1548 1546 1544 1543 1542 1542 1540
1500 1505 1508 1511 1514 1517 1520 1523 1525 1528 1528 1530 1532 1534 1536 1537 1539 1542 1542 1545 1545 1546 1547 1546 1544 1547 1548 1548 1549 1549 1550 1551 1550 1549 1548 1548 1547 1546 1545 1543 1542 1541 1539
1496 1499 1500 1504 1507 1511 1515 1517 1518 1522 1525 1528 1531 1535 1535 1536 1538 1540 1540 1542 1544 1546 1544 1546 1548 1547 1547 1548 1549 1549 1549 1549 1549 1549 1549 1549 1547 1546 1546 1544 1542 1541 1540
1490 1491 1493 1498 1502 1506 1510 1515 1520 1524 1527 1527 1529 1532 1540 1538 1544 1542 1543 1539 1540 1543 1545 1544 1546 1547 1545 1547 1547 1547 1547 1548 1548 1548 1547 1546 1544 1544 1543 1543 1541 1539 1538
1484 1486 1490 1496 1500 1506 1512 1519 1523 1524 1524 1525 1524 1534 1531 1532 1542 1546 1545 1538 1541 1544 1544 1544 1545 1543 1543 1545 1545 1545 1546 1545 1546 1547 1547 1546 1543 1540 1541 1538 1538 1537 1535
1481 1484 1490 1495 1500 1504 1504 1508 1508 1512 1514 1501 1516 1528 1531 1524 1525 1535 1540 1537 1535 1543 1543 1542 1544 1542 1539 1539 1544 1542 1542 1543 1544 1544 1543 1541 1540 1541 1539 1539 1537 1534 1531
1477 1482 1487 1492 1492 1494 1498 1501 1502 1500 1503 1499 1502 1515 1521 1525 1529 1534 1536 1533 1536 1542 1543 1541 1540 1540 1538 1537 1540 1541 1540 1542 1542 1542 1540 1537 1535 1535 1534 1533 1533 1532 1530
1474 1479 1484 1483 1488 1491 1494 1497 1498 1503 1501 1504 1501 1507 1515 1520 1526 1530 1532 1533 1535 1538 1539 1539 1539 1537 1537 1535 1536 1540 1541 1541 1540 1539 1539 1538 1536 1533 1529 1530 1528 1529 1527
1473 1476 1479 1484 1487 1490 1493 1496 1498 1500 1501 1501 1503 1505 1513 1517 1522 1528 1530 1533 1536 1536 1536 1537 1536 1536 1537 1535 1534 1537 1538 1537 1536 1536 1536 1532 1530 1525 1523 1523 1525 1526 1526
1472 1476 1479 1484 1487 1490 1491 1494 1497 1499 1498 1499 1501 1505 1511 1516 1522 1528 1529 1531 1535 1535 1533 1533 1534 1536 1536 1535 1535 1535 1535 1533 1532 1532 1529 1527 1526 1525 1520 1519 1521 1522 1522
1473 1476 1479 1481 1485 1488 1490 1492 1495 1495 1497 1497 1501 1506 1511 1516 1522 1525 1528 1530 1532 1534 1533 1532 1533 1534 1534 1534 1534 1532 1531 1530 1527 1528 1523 1525 1522 1522 1520 1518 1518 1518 1516
1471 1474 1477 1480 1483 1486 1489 1490 1493 1495 1497 1499 1502 1505 1510 1515 1520 1523 1525 1526 1528 1531 1529 1530 1532 1533 1531 1532 1530 1529 1527 1526 1525 1523 1522 1521 1518 1518 1518 1516 1515 1513 1512
1471 1472 1476 1479 1482 1483 1485 1487 1490 1493 1497 1500 1502 1506 1508 1512 1516 1519 1521 1522 1524 1526 1527 1530 1531 1531 1530 1527 1526 1525 1524 1524 1521 1521 1518 1517 1515 1514 1513 1511 1509 1508 1506
1472 1474 1477 1479 1480 1482 1484 1487 1488 1492 1494 1497 1500 1503 1506 1509 1511 1515 1518 1519 1522 1524 1526 1530 1529 1528 1527 1525 1525 1524 1522 1522 1521 1519 1515 1513 1512 1511 1510 1508 1506 1506 1504
1472 1475 1477 1479 1478 1479 1482 1484 1487 1489 1494 1497 1501 1502 1505 1507 1510 1512 1515 1518 1520 1523 1526 1525 1525 1526 1524 1523 1523 1521 1521 1519 1516 1514 1513 1510 1508 1508 1507 1506 1504 1503 1503
1472 1475 1477 1478 1475 1478 1478 1480 1482 1487 1492 1495 1500 1502 1503 1507 1508 1509 1513 1518 1520 1522 1522 1522 1521 1521 1521 1519 1520 1518 1518 1516 1513 1511 1509 1507 1505 1505 1504 1504 1503 1501 1500
1473 1473 1474 1473 1472 1474 1477 1479 1482 1484 1487 1491 1496 1500 1503 1506 1507 1509 1512 1515 1518 1518 1517 1518 1518 1518 1518 1516 1516 1514 1514 1512 1509 1508 1507 1503 1502 1502 1502 1502 1501 1498 1497
1470 1470 1470 1468 1470 1471 1475 1478 1481 1482 1486 1489 1493 1497 1501 1503 1505 1508 1511 1513 1515 1515 1515 1515 1517 1514 1513 1513 1512 1511 1510 1509 1505 1503 1503 1501 1499 1500 1499 1499 1497 1495 1493
1465 1467 1467 1466 1467 1469 1473 1475 1478 1479 1484 1486 1489 1492 1495 1499 1502 1505 1509 1511 1512 1512 1514 1513 1511 1512 1512 1511 1509 1509 1508 1507 1501 1499 1496 1495 1496 1497 1497 1496 1494 1492 1490
1460 1460 1462 1464 1464 1466 1469 1470 1474 1477 1482 1485 1487 1488 1493 1496 1500 1504 1506 1508 1508 1510 1509 1509 1510 1510 1511 1509 1506 1505 1504 1501 1497 1494 1493 1491 1493 1494 1495 1492 1491 1489 1488
1457 1457 1457 1458 1459 1461 1464 1467 1471 1476 1480 1482 1487 1488 1492 1495 1499 1501 1502 1503 1506 1507 1506 1507 1508 1508 1508 1505 1503 1501 1499 1496 1493 1490 1490 1491 1491 1492 1492 1490 1489 1487 1485
1452 1453 1453 1453 1455 1456 1459 1464 1467 1474 1476 1481 1484 1487 1490 1494 1497 1501 1503 1504 1504 1504 1505 1506 1506 1506 1505 1502 1499 1497 1494 1492 1490 1489 1488 1489 1489 1489 1489 1488 1487 1485 1481
1448 1448 1448 1450 1452 1454 1457 1461 1463 1471 1474 1478 1482 1486 1490 1493 1496 1500 1500 1500 1501 1502 1504 1505 1505 1503 1500 1499 1497 1495 1493 1491 1489 1488 1487 1487 1487 1488 1487 1486 1484 1482 1478
1446 1445 1446 1446 1447 1449 1453 1459 1463 1466 1470 1476 1481 1486 1489 1492 1494 1497 1497 1498 1500 1502 1504 1504 1502 1500 1498 1497 1495 1494 1493 1492 1490 1489 1487 1487 1486 1485 1484 1484 1482 1479 1476
1441 1443 1444 1444 1445 1446 1449 1455 1459 1462 1468 1474 1480 1484 1487 1489 1493 1493 1494 1498 1500 1502 1503 1501 1500 1499 1496 1496 1496 1495 1494 1493 1491 1490 1488 1487 1485 1484 1483 1482 1479 1478 1475
Wind_Speed
22 25 26 27 26 25 27 25 24 19 23 23 17 13 13 11 12 12 12 7 3 5 3 3 3 4 5 1 2 3 2 6 7 5 5 9 12 17 12 11 4 3 12
29 26 28 28 28 27 27 27 25 23 26 24 18 15 14 11 10 10 9 6 2 1 2 3 4 5 6 6 7 11 10 7 2 6 8 6 10 10 13 10 11 8 10
33 30 30 31 30 28 27 26 26 24 29 26 22 20 19 17 15 12 13 8 7 3 1 2 6 7 6 9 5 6 4 5 6 6 6 5 7 5 14 8 9 10 10
33 32 33 35 34 32 28 25 28 26 26 23 19 20 20 20 16 14 11 10 6 3 3 2 2 4 5 7 5 6 2 2 2 4 3 6 5 11 6 10 11 9 13
36 36 34 33 33 30 26 26 26 22 20 20 17 14 12 12 11 12 10 10 9 5 4 4 6 4 3 3 2 3 5 4 2 2 3 5 7 10 9 10 12 12 8
33 37 35 30 29 26 23 18 18 15 13 18 21 9 10 12 16 16 13 10 7 6 4 6 2 2 1 6 5 6 7 5 4 5 2 4 6 7 8 11 8 13 13
35 34 30 27 24 21 24 21 24 22 15 27 26 24 22 19 24 26 15 9 7 7 5 5 2 4 0 3 7 5 4 6 8 6 9 9 10 11 16 19 17 15 12
34 29 26 22 27 28 27 28 28 29 13 27 16 18 35 18 21 25 15 14 8 11 11 9 13 9 5 3 3 3 4 6 8 12 12 12 14 18 18 14 14 12 9
23 23 22 29 29 29 30 29 28 25 19 12 11 21 24 25 25 22 19 16 17 15 14 11 9 5 0 3 3 4 3 4 8 10 10 16 21 10 13 18 20 11 13
16 21 25 27 27 26 27 25 25 24 25 10 13 16 21 18 20 22 21 19 19 14 10 5 2 2 3 4 3 3 4 6 11 14 18 15 13 17 18 22 24 17 14
18 20 21 21 22 20 21 24 22 19 13 11 13 18 15 19 20 22 22 17 15 10 4 4 3 3 3 2 4 7 11 14 16 17 8 16 19 14 12 10 3 13 15
13 16 17 18 18 22 21 22 13 9 11 16 19 22 20 22 24 25 20 16 13 7 2 5 6 5 6 6 9 9 10 12 9 10 12 12 17 15 15 14 11 12 13
12 13 16 17 18 20 19 12 9 13 15 23 22 24 28 26 25 19 17 15 16 13 9 8 7 8 6 8 8 12 14 15 10 11 17 18 14 18 19 16 11 12 16
10 15 17 15 15 15 17 14 16 17 20 23 24 25 25 26 23 18 16 15 13 11 8 11 8 6 8 11 15 14 12 11 10 11 12 13 12 13 15 16 17 21 22
14 12 13 6 8 10 12 16 17 16 18 21 22 23 23 24 21 16 14 13 9 5 4 4 7 8 12 14 14 11 8 13 13 14 10 10 10 13 15 11 17 15 13
10 8 9 10 13 11 14 17 16 17 19 17 19 13 15 15 10 13 13 11 9 10 7 7 6 9 10 12 12 13 13 13 13 13 17 16 12 14 11 13 13 14 13
5 4 10 12 15 13 15 17 21 24 23 16 18 17 16 19 12 13 14 14 13 12 11 8 7 9 9 10 11 11 13 13 14 10 9 9 13 13 9 12 13 13 13
9 13 15 17 18 17 16 14 19 23 26 20 21 21 17 14 16 13 12 14 14 12 6 6 8 9 7 11 13 13 15 14 16 15 11 14 13 9 10 12 14 17 19
11 12 12 16 13 16 21 19 18 20 21 23 23 24 20 17 16 14 15 14 9 9 11 10 5 6 10 14 14 15 14 14 17 17 13 17 13 6 10 12 16 18 18
13 15 14 12 13 18 22 20 19 17 21 18 21 26 23 19 19 19 17 13 9 7 7 6 6 9 14 14 13 11 12 14 15 18 20 19 7 7 11 14 19 21 19
15 13 17 19 22 19 22 24 25 20 22 21 16 22 23 21 20 18 15 9 6 5 5 4 9 11 8 8 11 13 13 13 16 19 24 4 1 7 12 17 19 16 16
15 12 12 22 24 23 27 24 25 25 24 19 17 18 19 20 15 12 11 14 9 9 4 7 8 5 9 12 13 17 17 20 17 15 7 3 2 8 14 14 14 16 17
12 16 15 16 23 21 19 25 23 23 22 17 21 20 20 22 17 15 11 11 11 4 3 7 5 7 9 10 16 18 13 8 9 8 3 3 4 6 11 11 14 16 19
14 11 13 16 21 17 20 22 19 27 22 24 20 19 21 16 13 11 11 10 7 3 3 3 4 7 14 17 14 10 9 8 8 6 5 2 1 5 10 12 15 21 22
13 13 14 17 17 22 25 19 27 29 27 22 26 20 16 18 16 13 9 8 6 2 1 3 7 12 17 9 4 6 7 8 8 7 6 6 7 7 8 13 19 16 25
14 13 14 14 15 20 22 19 25 27 24 27 21 20 13 15 15 13 11 8 2 3 4 6 11 15 4 5 6 8 8 9 8 8 8 9 10 11 12 17 20 15 16
Wind_Direction
220 227 225 227 228 227 226 227 229 210 230 242 247 225 210 202 181 171 192 222 227 201 309 29 99 158 174 174 113 178 280 166 60 64 11 352 346 336 343 347 264 311 329
223 228 230 229 228 230 230 231 234 219 234 243 237 223 214 212 199 199 192 197 219 206 147 107 110 113 103 113 61 54 52 46 49 43 13 4 339 335 336 2 342 325 294
222 225 231 230 230 234 238 229 229 221 228 236 229 219 211 205 207 186 198 207 214 231 124 109 115 137 151 142 137 110 56 78 13 48 13 332 340 309 333 350 329 345 339
217 224 231 233 233 235 232 228 226 229 227 228 225 218 213 201 212 195 199 188 220 179 164 132 127 108 93 119 94 63 311 94 17 345 337 345 322 317 348 339 340 357 327
219 226 232 231 232 229 221 226 217 220 223 221 218 215 216 237 223 201 208 206 195 205 187 124 161 24 38 95 209 264 295 281 272 309 334 329 312 337 352 333 321 353 331
224 226 228 227 223 222 216 224 217 218 224 209 222 246 238 164 252 237 226 212 215 218 174 165 216 284 350 345 356 339 344 345 331 321 271 300 310 342 312 316 342 323 317
221 227 219 220 210 205 206 204 204 204 196 1 290 267 236 234 216 228 214 252 270 213 201 126 100 203 64 333 305 319 21 359 358 353 342 335 325 312 316 314 311 304 310
226 224 214 207 199 197 200 203 217 233 239 305 241 243 241 224 206 219 242 245 224 210 212 198 199 231 260 296 309 29 5 313 321 313 321 327 319 307 305 302 311 312 326
222 213 202 203 196 199 209 222 233 215 293 286 249 221 221 222 217 230 222 207 214 206 208 208 208 239 23 84 63 79 309 323 329 334 320 303 311 313 300 284 285 293 298
205 200 205 201 208 217 225 228 226 242 291 248 226 234 220 208 221 210 198 199 210 210 200 185 204 88 83 80 62 345 302 290 288 288 300 307 312 319 318 289 275 266 286
205 207 208 206 218 214 213 208 209 278 256 220 226 206 216 206 200 188 189 198 216 196 206 216 181 322 346 341 328 323 322 324 319 313 327 331 335 338 347 2 310 254 285
213 204 199 203 205 200 203 205 265 227 191 195 191 182 190 192 187 184 192 188 177 165 201 213 233 266 295 301 321 327 326 312 327 335 327 319 316 328 339 341 329 313 301
205 192 189 194 198 205 215 239 195 186 188 185 187 194 188 184 190 195 194 186 181 179 196 227 238 269 284 312 323 319 299 302 313 311 311 308 307 309 311 315 316 306 299
171 182 181 192 209 222 238 229 200 193 189 195 186 194 192 193 200 200 200 198 198 211 221 242 246 281 300 318 314 308 309 311 327 309 310 301 316 310 321 326 321 306 301
172 199 194 229 237 203 188 180 195 192 206 190 195 205 198 201 211 212 213 205 213 206 191 207 255 291 309 309 313 326 319 315 305 305 294 308 311 307 320 318 308 329 343
180 194 195 214 240 218 209 196 198 188 189 193 194 213 193 212 215 195 186 194 209 213 217 219 247 277 290 305 309 311 306 310 302 299 304 296 312 311 321 312 317 316 312
155 232 233 211 240 211 211 204 191 182 181 182 191 190 204 203 204 186 192 199 213 230 229 241 263 280 293 296 304 305 310 303 311 313 298 302 302 306 311 310 308 304 289
222 231 231 245 244 211 199 190 186 184 187 188 197 200 202 215 203 193 197 209 207 198 220 249 256 285 310 305 304 304 294 298 294 291 295 293 308 300 314 308 306 295 302
245 244 257 264 220 202 186 190 198 196 196 205 202 204 209 198 196 200 190 184 198 258 276 274 259 291 302 302 302 301 305 306 290 294 292 291 300 295 304 305 298 298 313
242 225 245 247 244 194 196 195 197 195 187 204 206 203 198 196 193 185 186 194 206 207 258 248 278 291 299 306 311 304 301 302 285 289 301 310 250 291 303 298 303 301 308
260 255 229 232 235 228 207 202 203 190 185 198 204 201 199 192 183 187 189 190 174 218 212 254 276 319 327 301 295 301 294 278 279 296 304 281 261 307 305 303 310 315 312
228 243 240 227 233 231 215 216 201 185 191 200 188 208 196 175 178 198 218 225 206 206 244 289 316 307 297 303 301 287 287 297 297 303 295 152 325 327 302 312 310 315 315
245 233 239 235 223 232 230 212 201 197 192 187 189 197 181 179 195 216 199 195 169 168 249 307 312 298 292 287 294 306 311 318 323 310 286 185 287 314 318 318 315 317 319
261 250 242 238 227 220 216 201 203 191 189 181 189 197 181 188 193 191 189 171 161 190 285 281 303 286 280 305 312 327 348 351 347 342 324 288 6 324 305 317 322 319 321
262 247 241 233 229 226 224 207 183 190 180 184 176 178 185 192 188 178 173 172 194 208 283 302 253 269 303 320 4 22 23 26 30 26 25 2 338 322 356 331 323 326 335
251 251 251 240 236 220 216 190 183 178 182 175 189 182 177 181 179 169 183 196 241 211 248 251 277 307 317 52 66 59 46 35 23 7 347 335 332 356 360 341 332 340 345